ECMWFFLT1_500_spd_132.txt.gz
Wind_Speed
26 25 24 25 24 25 23 23 23 21 20 20 18 18 16 15 15 15 14 13 12 11 10 10 9 9 9 9 9 10 11 12 14 16 17 18 19 18 18 17 16 14 12 11 9 8 7 6 6 5 5 5 5 5 5 5 6 7 7 7 7 7 6
28 27 26 25 25 26 25 25 24 22 22 21 20 19 18 17 17 16 16 15 14 13 12 11 10 9 9 9 10 11 11 11 13 15 16 17 18 19 19 18 17 16 15 13 12 10 10 9 9 8 8 7 7 7 7 7 7 7 7 6 6 6 5
30 28 27 27 26 26 26 26 25 24 23 22 21 21 20 19 18 17 16 16 16 15 13 12 11 10 10 10 11 11 12 12 12 13 15 16 18 19 19 19 18 17 16 15 14 13 13 12 11 11 10 10 9 9 9 8 8 7 7 6 5 4 3
33 30 28 28 27 27 27 25 25 25 24 24 23 23 22 20 19 18 17 17 17 17 16 14 13 12 11 11 11 12 12 13 12 12 13 15 17 18 19 19 19 19 18 17 16 16 15 15 15 14 13 12 11 11 10 9 8 7 6 5 4 2 1
32 31 29 29 28 29 28 26 25 25 25 24 24 24 23 21 21 21 20 18 18 18 17 16 15 14 13 12 12 12 12 13 13 13 13 13 14 16 17 18 18 18 18 18 17 16 16 15 16 15 14 13 11 10 9 7 6 5 5 3 3 2 1
26 24 25 29 29 29 29 27 26 25 25 25 25 25 24 23 23 22 21 20 19 18 18 17 17 16 15 14 13 13 12 12 13 13 13 13 13 13 14 15 14 15 16 15 15 14 13 13 13 13 12 11 9 8 7 6 5 4 3 2 2 2 2
21 20 20 26 31 31 29 29 28 27 27 26 26 26 25 24 24 24 23 22 21 20 19 19 18 18 17 16 15 14 13 13 13 13 14 14 13 14 14 13 13 13 13 12 13 12 11 11 10 10 10 9 8 7 7 6 5 4 4 3 3 2 2
17 18 17 22 31 33 31 29 30 29 28 27 27 26 25 25 26 26 24 24 23 22 21 20 19 19 18 17 17 16 15 15 14 14 14 14 14 15 14 14 13 13 12 12 11 11 11 10 10 9 9 8 8 8 7 6 5 5 5 5 4 3 3
16 16 15 17 25 31 32 30 30 30 28 26 27 28 27 26 26 25 25 25 25 24 23 22 21 20 19 19 18 18 18 17 16 16 15 15 15 14 14 14 14 13 13 13 12 12 11 10 10 10 9 9 9 8 8 7 7 6 6 6 6 5 5
16 17 16 16 19 24 28 30 30 31 29 26 27 28 27 27 26 25 25 26 26 26 25 24 23 22 21 20 20 19 19 19 19 18 17 17 16 16 15 15 14 14 14 13 13 13 12 12 12 11 11 10 10 9 9 9 8 8 8 8 8 8 7
17 17 17 18 18 20 23 26 28 29 28 28 29 28 27 27 26 25 25 25 26 27 26 25 25 24 23 22 22 21 20 20 20 20 19 19 18 18 17 16 15 15 15 14 13 13 14 14 13 13 12 12 11 11 11 11 10 10 10 10 10 10 10
13 15 16 18 19 20 20 23 25 27 28 30 30 28 28 28 26 25 25 24 25 27 26 26 26 26 25 24 24 23 22 22 21 21 20 20 20 20 19 19 18 18 16 15 15 15 15 15 14 15 14 13 13 13 12 13 12 12 11 11 11 11 11
10 12 14 16 19 20 19 21 24 26 28 30 30 30 29 29 27 25 23 23 25 26 26 26 27 27 26 26 25 24 24 24 23 22 22 21 21 20 21 21 20 19 18 17 16 16 16 16 16 16 15 14 15 14 14 14 13 13 12 12 12 12 12
11 10 11 13 16 19 19 21 24 25 26 28 30 31 30 29 28 24 22 23 25 26 26 26 27 27 27 26 26 26 26 25 25 24 23 23 22 21 21 21 21 21 20 19 19 19 18 18 18 16 15 16 17 16 15 15 14 13 13 13 12 12 12
12 11 9 10 13 15 18 21 22 21 22 24 28 31 31 29 28 26 25 26 26 26 26 27 27 27 25 25 26 27 27 27 26 26 25 25 24 23 23 23 22 22 21 21 21 21 20 20 20 19 19 19 19 18 17 17 16 15 14 14 14 13 13
11 12 11 10 11 12 15 18 19 18 20 21 25 31 33 33 31 30 29 29 29 28 28 28 27 26 25 25 26 27 28 28 28 27 26 26 26 26 26 25 24 23 23 22 22 22 21 22 21 22 22 21 21 21 20 19 19 18 17 16 16 15 14
12 13 13 12 11 11 12 16 17 17 19 21 22 26 31 36 36 33 30 29 30 30 30 30 29 27 28 28 27 26 27 28 29 29 28 28 27 26 27 27 27 26 25 24 23 23 23 23 23 23 23 23 23 24 23 21 21 20 20 19 19 18 17
14 14 14 14 14 12 11 13 14 15 16 17 18 19 23 29 34 33 30 30 32 32 32 32 32 31 30 29 28 27 26 26 28 28 27 26 25 25 26 26 25 25 25 25 25 25 23 23 23 24 23 23 25 25 23 22 22 22 22 22 21 20 20
16 16 16 15 15 15 15 14 15 15 15 15 15 15 17 21 27 29 29 30 32 35 35 34 34 35 34 32 31 30 28 27 28 28 27 25 25 26 26 25 25 25 25 26 27 26 25 25 25 24 23 23 25 24 22 22 23 23 23 23 22 21 22
18 17 17 16 16 16 16 16 16 16 16 16 16 15 16 18 21 23 23 22 24 28 32 34 35 38 37 34 33 33 31 31 32 31 30 29 29 29 27 26 27 28 28 29 29 29 28 27 26 25 25 26 26 23 22 24 26 25 25 25 24 23 23
19 19 19 19 19 18 16 16 15 15 16 17 18 18 18 19 19 19 18 17 16 18 22 28 33 38 40 37 34 34 34 33 34 34 32 32 31 30 30 31 30 30 30 30 30 31 30 29 27 25 26 28 28 24 23 24 27 27 26 26 26 25 25
22 20 20 20 20 20 19 17 16 16 16 17 17 18 19 19 19 18 16 16 16 16 18 21 25 31 37 39 38 37 36 35 36 35 34 32 30 27 28 32 33 32 32 32 32 32 32 30 29 28 29 30 30 27 25 25 26 27 27 26 26 26 26
25 24 22 21 21 21 21 20 19 19 19 18 18 18 18 18 19 19 19 18 16 15 17 19 19 22 28 33 36 38 39 39 39 39 38 36 32 29 28 32 35 35 33 32 32 32 32 31 31 30 31 31 31 29 28 28 28 29 29 29 29 28 27
29 28 26 25 24 23 23 23 23 22 21 21 21 20 20 20 20 21 21 21 20 19 19 19 18 19 21 22 25 31 39 42 41 41 42 40 37 35 32 32 35 36 34 33 32 32 32 32 32 31 30 31 31 31 31 31 32 32 32 33 32 31 30
32 31 30 29 28 27 27 26 26 25 24 24 24 24 23 23 23 23 23 23 25 26 26 24 22 22 20 17 18 23 32 40 43 42 41 41 40 40 37 35 36 37 36 34 33 33 33 33 33 32 32 32 33 34 34 34 35 36 35 35 34 34 32
31 31 31 32 32 31 31 30 30 29 29 28 27 27 27 26 25 24 24 26 29 30 31 30 29 28 25 22 22 23 24 28 36 38 38 39 41 42 40 37 39 40 38 37 35 34 35 36 36 35 36 36 36 37 37 36 36 37 36 35 35 35 33
30 30 30 31 32 34 34 34 33 33 32 32 31 31 30 29 28 27 25 27 29 31 31 31 31 31 31 29 29 29 25 22 23 26 29 32 36 39 40 40 40 40 39 38 38 35 35 37 39 39 40 39 38 38 39 38 37 38 38 35 32 32 33
30 30 30 29 30 32 33 33 34 33 32 32 33 33 33 32 31 30 29 28 28 28 28 28 27 29 31 32 33 33 31 27 25 24 25 25 27 30 34 37 40 41 41 40 40 39 38 39 40 42 42 39 37 37 39 39 38 36 36 35 32 30 31
30 31 31 30 29 28 29 30 31 32 32 31 31 32 33 33 32 32 32 30 29 28 27 26 25 26 28 30 30 30 29 28 27 27 27 27 27 27 26 27 30 35 40 44 43 42 41 41 42 44 45 43 40 38 39 41 41 38 35 36 37 36 35
30 30 30 29 28 27 27 27 28 29 30 31 31 31 32 33 32 31 31 32 31 31 29 27 26 25 26 26 25 24 23 24 25 25 25 25 27 27 28 28 27 28 32 40 46 47 45 43 43 45 49 51 49 46 43 44 46 44 41 39 40 41 41
28 28 27 27 27 27 27 26 26 26 27 29 30 31 31 31 31 30 31 31 32 32 31 29 28 26 25 24 22 21 20 21 22 22 21 22 23 23 25 27 26 25 26 32 40 42 37 33 31 34 40 46 50 51 50 50 49 48 46 45 44 44 45
27 27 27 27 27 27 27 26 26 26 27 28 29 30 30 30 30 31 31 32 33 33 33 31 29 26 25 24 23 21 20 20 20 20 20 21 22 22 23 23 23 22 22 24 28 28 24 22 23 24 27 32 37 40 42 43 43 42 42 42 40 38 39
25 26 27 27 28 28 28 28 28 27 28 28 28 29 30 30 29 30 30 31 32 33 34 34 32 29 28 26 25 24 22 21 20 21 21 21 22 23 24 24 24 23 23 25 27 27 27 27 28 28 28 28 29 30 30 30 31 31 32 32 30 29 29
26 27 27 28 29 30 30 30 30 30 29 29 29 30 30 30 30 30 30 30 31 32 33 34 34 33 32 31 30 29 27 26 25 24 24 24 24 25 25 26 26 27 27 29 30 30 31 31 31 32 32 32 33 33 31 29 30 30 30 30 30 29 29
29 29 29 29 30 30 31 31 32 31 31 31 32 32 32 32 33 33 32 32 32 32 32 33 34 34 35 35 34 33 32 32 31 30 29 29 29 29 29 28 29 29 30 31 31 31 31 31 32 32 32 32 33 33 30 28 28 29 29 30 30 30 29
28 28 29 30 30 30 29 30 31 33 33 33 33 34 35 35 35 35 35 34 34 33 33 32 32 33 34 35 36 36 36 35 34 33 32 31 32 32 32 31 31 31 32 32 32 31 32 32 32 32 32 33 33 33 32 29 28 29 30 30 31 31 31
28 26 26 28 30 32 31 30 30 32 34 35 35 36 37 37 37 36 36 36 36 35 35 34 34 34 34 34 35 36 37 37 37 36 34 32 32 33 33 33 34 34 34 34 34 33 33 34 34 34 34 35 36 36 36 35 34 34 34 35 35 36 36
31 30 30 29 29 30 31 31 31 31 32 33 34 35 36 37 37 37 37 37 37 37 37 36 35 35 35 35 35 35 36 37 38 39 38 36 35 34 35 35 36 37 37 37 37 37 36 36 36 36 37 37 38 39 40 40 40 40 40 41 42 42 42

ECMWFFLT1_500_spd_135.txt.gz
Wind_Speed
26 24 22 21 22 21 21 20 19 18 18 18 17 15 15 15 15 14 13 12 11 10 9 9 8 8 8 8 9 11 12 13 14 16 16 16 16 15 14 13 11 9 7 6 5 4 3 2 1 1 2 3 4 4 5 5 6 7 7 6 5 4 4
29 27 24 23 23 22 22 22 20 18 19 19 18 17 15 15 15 15 14 13 12 11 11 10 9 9 9 9 9 10 11 12 14 15 16 16 15 15 14 13 11 10 8 7 6 5 4 4 4 4 4 5 5 5 6 7 7 7 7 6 5 4 4
31 28 26 24 23 23 23 23 21 19 20 20 18 18 17 16 16 16 15 15 14 13 12 12 10 10 9 9 9 9 10 11 13 14 15 16 16 15 15 14 13 11 11 10 9 8 7 7 6 6 6 6 7 7 7 8 8 7 6 5 4 4 4
33 29 27 25 24 23 24 24 22 21 21 21 19 19 19 19 18 17 16 16 15 14 14 13 12 11 10 10 9 9 10 10 11 13 14 15 16 16 15 15 14 13 13 12 11 10 9 9 9 8 8 8 8 8 8 8 7 5 4 3 3 3 3
36 32 29 27 25 24 24 24 23 22 22 22 21 20 20 20 19 18 18 17 17 16 14 14 13 12 12 11 10 10 10 10 11 11 13 13 14 15 15 15 15 15 14 14 13 13 12 11 11 10 10 9 9 9 8 7 6 4 3 2 1 2 2
37 33 30 29 28 26 25 25 24 23 23 23 22 21 22 21 20 19 19 19 18 17 16 15 15 14 13 12 11 11 10 11 11 11 11 11 12 12 13 14 14 15 15 14 14 14 13 12 11 10 9 9 9 8 6 5 4 3 2 2 1 0 1
35 32 30 30 30 28 27 26 25 24 24 24 24 23 23 23 22 21 20 19 18 17 17 16 16 15 14 13 13 12 12 11 11 11 11 11 11 10 11 12 13 13 13 13 12 12 12 11 10 9 8 8 7 7 6 5 4 4 3 3 2 2 1
32 32 31 32 32 29 28 27 26 26 25 24 24 24 24 24 23 21 20 19 19 19 18 18 17 17 16 15 15 14 13 13 12 12 12 12 12 11 11 11 11 11 10 10 10 10 10 10 9 8 8 8 8 7 7 6 5 5 5 4 4 3 3
27 32 35 34 33 31 28 27 27 29 27 25 25 24 25 25 24 22 20 19 20 20 20 19 18 18 17 17 16 15 15 15 14 14 13 13 13 13 13 12 12 11 11 10 10 9 9 9 9 8 8 8 9 8 7 7 6 6 6 5 5 5 5
20 26 31 32 31 29 29 28 28 30 30 29 27 24 24 26 25 23 22 21 21 22 21 20 19 19 18 18 18 17 16 16 16 16 15 15 14 14 14 14 13 12 12 11 11 10 10 10 9 10 9 9 9 9 8 8 8 7 7 7 7 7 7
17 19 23 26 27 26 28 30 31 32 32 31 28 24 23 25 26 24 24 23 23 22 21 21 21 21 20 20 19 19 18 18 18 17 17 17 16 15 15 14 14 13 13 13 13 12 12 11 11 11 11 11 11 10 10 9 9 9 9 8 8 9 9
20 20 19 21 23 22 24 29 33 34 32 30 28 25 25 27 27 25 24 24 23 22 21 21 22 22 22 22 21 21 20 20 19 19 18 18 18 17 17 16 16 15 14 14 14 13 12 12 12 12 12 12 12 12 11 11 10 10 10 10 10 10 10
18 20 19 19 22 22 22 25 32 34 32 30 30 29 29 30 29 26 24 25 25 23 23 23 23 23 23 23 22 22 22 21 21 20 20 19 18 18 18 18 18 18 16 15 15 14 15 14 14 14 14 13 13 14 13 12 12 12 11 11 11 11 10
14 17 18 19 21 23 21 21 27 32 32 31 32 31 30 29 29 28 26 26 26 25 25 25 23 23 23 24 23 22 22 22 21 21 20 20 20 19 19 20 20 19 18 17 16 17 17 15 15 16 16 14 14 15 14 14 13 13 12 12 12 11 11
11 12 15 17 19 21 22 21 23 27 29 31 33 33 32 30 30 29 28 27 27 26 26 25 23 22 23 24 24 24 23 22 21 21 20 20 21 21 21 21 20 19 18 18 18 19 19 18 17 18 17 15 15 16 15 14 13 13 13 13 13 13 13
15 12 11 13 16 19 21 23 23 24 27 30 31 32 34 34 32 31 30 28 27 26 25 25 26 24 22 23 24 24 24 23 23 23 23 22 22 22 22 22 21 20 20 20 20 21 21 20 20 19 19 18 17 16 15 15 15 15 15 15 15 15 15
16 14 11 10 11 14 18 21 24 26 29 29 28 29 32 34 34 32 30 28 27 26 25 27 28 24 21 22 23 24 24 23 24 25 25 25 24 23 24 24 23 23 23 23 23 23 22 22 22 21 21 20 19 18 18 18 17 17 18 18 18 18 18
13 13 13 11 9 9 11 13 18 24 26 26 24 23 25 29 33 33 29 29 29 27 25 26 26 23 22 23 24 24 24 24 25 26 27 27 26 26 25 25 25 26 26 26 26 26 25 23 23 23 22 21 20 19 19 20 20 20 20 21 21 21 21
14 14 14 14 13 11 9 8 11 15 17 18 20 19 18 21 27 30 30 30 31 29 27 26 24 23 25 27 26 26 26 26 28 29 28 28 28 28 28 28 28 28 28 28 28 28 27 26 25 24 23 21 20 20 20 20 21 22 22 22 23 24 24
13 13 12 13 14 15 13 12 11 11 12 13 15 17 18 19 22 25 28 30 31 31 28 25 22 23 27 29 28 28 28 28 29 31 30 30 29 29 29 30 30 30 29 28 28 27 28 27 27 26 24 22 21 21 22 22 22 22 23 24 25 25 25
13 13 13 13 14 16 16 16 15 14 14 15 15 17 19 19 19 20 21 23 25 26 25 23 23 26 30 32 31 31 30 30 31 32 32 32 31 30 30 30 30 30 29 29 28 28 28 28 28 28 26 23 22 23 24 24 23 24 25 25 26 26 26
16 15 15 16 16 17 17 17 16 16 17 17 18 19 19 19 18 17 16 16 18 20 21 21 23 27 30 33 34 34 34 33 34 35 36 35 33 33 32 31 31 31 30 30 30 31 30 30 30 30 28 25 25 26 26 26 26 26 26 27 27 27 27
19 18 18 18 18 19 19 18 18 18 18 18 19 20 20 20 19 18 17 15 15 16 17 17 17 19 22 27 31 35 37 36 36 37 38 37 36 35 35 34 33 33 33 33 34 34 33 32 31 31 30 28 27 27 28 28 28 28 28 29 28 28 29
21 21 21 21 21 21 21 21 21 21 20 20 20 20 20 19 19 18 18 17 17 18 18 17 17 16 16 18 22 27 32 35 37 38 39 39 38 37 36 36 36 35 36 36 36 37 36 35 34 33 31 29 28 28 29 29 30 30 30 31 31 31 30
24 24 24 25 25 24 24 24 24 24 23 22 21 21 19 18 18 18 18 18 19 19 20 21 22 21 20 18 17 19 22 24 27 30 32 35 38 39 37 37 37 38 38 37 36 35 35 35 35 33 32 31 30 30 30 31 31 32 31 31 32 32 32
25 26 27 28 28 28 27 27 27 27 26 25 24 23 21 21 20 20 20 20 20 21 22 23 24 25 26 25 23 21 20 19 20 21 22 24 29 34 36 38 40 41 41 39 38 36 35 36 35 31 32 35 35 32 32 33 33 33 32 32 32 32 32
26 27 28 29 30 30 30 29 28 28 28 27 27 26 25 25 24 24 23 23 23 23 24 25 25 26 27 28 28 27 25 23 23 24 23 22 21 22 26 32 37 39 39 41 42 41 39 38 36 34 36 38 38 35 35 35 35 34 34 34 34 33 33
24 25 26 27 28 29 30 30 30 29 29 29 29 29 29 29 29 28 27 26 26 27 26 27 26 26 27 28 29 30 29 29 29 29 28 28 25 22 21 22 23 24 25 29 35 40 41 41 40 39 39 39 38 38 37 37 36 36 35 35 36 36 36
24 24 25 25 25 26 28 29 30 30 30 30 30 30 31 32 32 31 30 30 29 29 29 28 27 26 26 28 28 29 29 29 29 29 28 28 29 28 27 24 21 19 19 20 23 27 31 35 39 41 42 40 40 39 39 37 36 35 35 36 38 38 37
26 26 26 25 25 26 26 27 28 29 30 30 30 30 30 31 31 31 31 31 31 30 30 29 28 27 27 27 27 26 25 25 25 26 26 26 27 28 28 26 24 22 22 22 22 22 23 25 29 34 39 41 41 40 39 40 40 39 39 39 40 39 38
26 26 26 26 26 26 26 26 26 27 28 29 29 29 28 28 27 28 28 30 31 31 30 29 30 29 28 27 26 25 23 23 23 23 24 24 24 24 24 24 23 22 22 23 23 23 24 24 25 27 32 37 42 43 43 42 40 39 39 40 42 44 45
28 27 26 26 26 26 25 25 26 26 26 27 28 28 27 26 27 28 29 29 31 32 31 30 30 30 30 29 28 26 25 23 23 23 23 22 22 21 21 21 21 21 21 21 22 22 22 23 24 25 26 30 35 39 38 34 31 30 31 30 31 33 36
31 31 29 27 26 26 26 26 26 26 26 26 27 27 27 27 28 29 30 30 32 32 32 32 31 31 31 30 30 29 28 26 25 24 22 22 21 21 20 19 20 20 21 20 21 21 21 21 21 22 22 23 25 27 27 27 28 29 29 27 25 24 25
25 29 30 28 26 25 26 26 26 26 26 27 27 27 27 28 28 29 30 31 32 32 33 32 32 33 33 33 32 32 31 30 28 27 25 24 23 22 21 21 21 21 21 21 21 21 22 22 22 22 22 23 25 26 27 29 30 30 29 29 28 28 27
22 23 26 26 25 25 25 26 26 27 27 27 28 28 28 28 29 30 31 31 32 33 33 33 34 34 35 35 35 34 34 33 32 30 29 27 26 26 26 26 25 24 24 24 24 24 24 25 25 26 26 27 28 29 30 31 31 31 32 32 31 31 30
25 24 25 26 25 25 25 26 27 28 28 28 29 29 30 30 30 30 31 31 32 33 34 34 35 35 35 36 36 35 35 34 33 32 31 30 30 29 29 29 29 28 28 29 28 28 29 29 30 30 31 31 31 31 31 31 31 32 32 33 32 32 32
21 22 23 25 26 26 27 26 26 27 29 29 29 30 30 31 31 31 31 32 33 34 35 35 36 36 36 36 36 36 35 35 34 34 33 33 33 32 31 30 30 30 30 30 31 31 32 32 33 33 33 33 33 32 32 32 32 32 33 33 34 34 34
22 22 23 23 25 26 26 27 26 24 25 27 29 30 29 29 29 31 32 33 34 36 37 37 38 38 37 37 36 36 36 35 35 35 35 35 34 33 33 33 32 32 31 31 32 32 32 33 33 34 34 35 35 34 34 34 34 34 34 35 36 36 37

ECMWFFLT1_500_spd_138.txt.gz
Wind_Speed
26 23 22 20 20 20 20 20 20 19 19 19 18 16 16 16 16 15 14 13 13 13 12 12 13 14 15 16 17 19 20 21 20 19 18 16 15 13 12 11 10 9 8 7 6 5 5 4 3 2 1 2 2 2 3 3 4 4 3 3 2 2 2
28 25 23 22 21 20 21 21 20 19 20 20 19 17 16 17 17 17 16 14 14 13 13 13 13 13 14 16 16 17 19 20 20 20 18 17 16 14 12 11 10 9 8 7 6 5 4 3 2 1 1 1 1 1 2 3 3 3 2 2 2 3 2
30 28 25 24 23 22 21 21 20 20 21 21 20 18 18 18 19 19 18 16 14 14 14 14 14 14 14 15 16 17 18 19 20 20 19 18 17 16 14 12 11 10 9 8 7 6 5 4 4 3 3 3 3 3 2 3 3 2 1 1 2 3 3
29 31 29 25 24 23 22 22 22 22 22 22 21 20 20 20 20 20 19 18 16 15 14 14 14 14 15 15 15 16 17 18 19 20 20 19 19 18 16 15 14 12 11 10 9 8 8 7 6 6 6 6 5 5 4 4 3 1 1 1 3 3 3
26 32 32 28 26 25 24 23 23 23 22 22 21 21 21 21 21 20 20 20 18 16 15 14 13 14 15 16 16 15 16 17 18 19 20 20 19 19 18 17 16 15 14 13 12 11 10 10 9 9 9 8 8 7 6 5 3 2 1 2 3 4 4
25 30 32 31 28 26 25 23 23 23 24 23 23 22 22 22 21 21 21 21 20 19 17 16 15 14 14 15 16 16 16 17 17 18 18 19 19 19 18 18 17 17 16 15 14 13 12 12 11 11 11 10 9 8 6 5 3 3 2 3 3 4 4
24 27 32 34 31 27 26 23 22 23 24 23 24 23 23 22 22 22 21 21 21 21 20 19 17 16 15 15 16 17 17 17 16 16 17 17 17 18 18 18 18 17 16 16 15 14 13 12 12 12 11 10 9 7 6 5 4 4 4 4 4 4 4
24 28 34 37 34 30 28 26 24 24 23 23 23 23 23 23 22 22 22 21 22 22 21 20 20 19 18 17 16 16 17 16 16 16 16 16 16 16 17 16 16 15 15 14 14 13 12 11 11 10 10 10 8 7 6 6 5 5 4 4 5 5 4
27 30 35 39 36 32 31 30 28 25 22 21 23 23 23 24 23 23 22 21 21 22 22 22 21 21 20 19 18 17 17 16 16 16 16 16 16 16 15 14 13 13 12 12 12 11 10 9 9 9 9 9 8 7 7 7 7 6 6 6 6 6 5
28 32 35 38 37 34 32 32 31 28 23 20 21 23 24 24 24 24 23 22 21 22 22 22 22 21 21 21 20 19 18 17 17 17 17 16 16 16 15 14 12 12 11 10 10 9 9 9 10 10 10 9 8 8 7 7 8 7 7 7 7 7 7
23 29 34 37 36 33 31 31 31 30 27 23 22 23 24 25 25 24 24 24 23 22 22 22 22 22 21 21 21 21 20 19 18 18 17 17 16 16 15 14 14 12 11 10 11 10 11 11 11 11 11 11 10 10 9 9 9 8 8 9 9 9 9
16 21 26 32 36 34 30 30 31 31 29 26 24 23 24 24 24 24 25 26 25 23 22 22 22 22 22 22 22 22 22 21 20 20 19 18 17 16 15 14 14 13 12 13 14 13 13 13 13 13 12 12 12 11 11 11 11 10 10 10 10 10 10
14 17 19 23 29 35 37 35 32 32 31 27 25 27 26 25 25 24 25 26 26 24 22 22 23 23 23 23 23 23 22 22 21 20 20 19 17 17 16 15 14 14 14 15 16 15 14 14 14 14 13 12 12 13 12 12 12 12 12 12 12 12 12
12 14 17 17 19 26 36 39 34 31 31 29 30 32 30 27 26 27 27 26 26 25 23 23 24 24 24 24 24 24 23 23 22 22 21 19 18 18 17 16 15 16 16 16 17 16 15 15 16 16 15 14 14 14 12 11 13 14 14 14 13 13 13
10 11 13 16 15 16 25 32 34 32 31 32 34 34 31 29 28 28 28 27 26 26 25 25 26 26 25 25 25 26 25 25 25 24 23 22 21 20 19 18 17 17 17 18 19 19 18 17 18 17 17 16 16 15 13 13 15 17 16 16 15 15 15
7 7 8 11 13 13 16 22 28 30 30 31 33 32 31 29 29 30 30 29 27 27 27 27 27 27 27 27 27 28 28 27 27 26 26 24 23 22 21 21 20 19 20 20 20 20 20 20 20 20 19 18 18 17 17 16 17 18 18 18 18 18 17
6 7 8 9 10 11 13 17 22 25 26 27 30 32 31 28 29 32 31 30 29 29 29 28 26 25 27 27 28 29 29 28 28 28 27 26 25 25 24 24 23 22 22 22 22 21 21 21 21 22 21 20 21 21 20 19 19 20 21 20 19 20 19
6 6 8 10 10 9 10 13 18 22 25 25 26 32 33 30 31 34 33 32 32 32 32 27 22 24 29 29 29 29 28 28 28 29 29 28 28 28 27 26 25 25 24 24 24 23 23 22 22 23 23 23 23 24 23 23 23 23 24 23 22 22 22
8 8 7 8 10 10 8 8 11 15 20 23 24 29 33 31 30 31 33 35 35 34 34 30 24 26 30 30 29 29 27 27 28 29 29 29 29 29 28 27 27 26 26 26 26 25 25 24 24 24 24 24 24 24 25 25 25 25 26 25 25 25 25
12 11 11 10 10 11 11 11 9 9 13 17 22 27 32 32 29 28 30 35 37 37 36 34 31 31 30 28 28 29 28 28 28 28 28 28 29 29 28 27 27 27 27 27 28 28 28 27 27 27 26 26 26 25 25 25 25 26 26 26 27 27 27
14 13 13 12 13 13 13 13 13 13 13 14 16 20 24 26 25 23 24 29 36 39 38 35 34 33 31 27 26 29 30 29 29 29 28 29 29 29 28 27 27 28 28 28 29 29 29 29 29 29 29 28 27 27 27 27 27 27 27 27 27 27 27
17 16 14 13 13 13 13 13 14 15 16 16 16 16 17 18 18 18 17 20 26 32 35 34 33 33 32 28 27 29 30 30 31 30 28 29 32 32 31 29 29 30 30 29 30 29 29 29 29 29 29 29 28 28 28 28 29 29 29 28 28 28 28
17 18 17 15 14 13 13 14 15 15 14 15 15 15 15 15 15 16 16 16 17 21 26 30 32 32 33 32 32 31 30 29 31 30 28 31 35 36 34 32 31 32 32 32 31 30 29 29 29 29 29 29 29 29 29 29 30 29 29 30 30 30 29
17 18 17 16 15 15 14 15 15 14 13 14 15 15 15 15 14 15 16 16 16 17 19 23 26 28 30 32 32 32 30 31 34 34 33 34 36 35 34 34 34 34 35 34 33 32 31 30 30 31 31 31 30 30 30 30 31 31 31 31 31 31 31
19 19 18 17 17 16 16 17 16 15 15 16 16 16 16 14 13 14 16 17 16 17 18 19 21 22 24 26 27 29 29 30 32 35 36 36 37 35 34 33 34 34 34 35 35 35 35 34 34 33 34 33 33 32 33 32 32 32 32 32 32 32 33
22 22 21 21 21 20 20 19 19 18 18 18 17 17 18 16 14 15 16 16 17 18 19 20 21 21 22 23 24 25 25 24 25 27 28 30 33 36 37 36 35 33 33 35 37 38 37 37 37 37 36 36 35 34 34 34 34 34 33 32 33 33 33
26 26 25 25 25 24 24 23 23 22 22 22 22 22 22 21 19 20 20 20 20 19 20 21 22 21 22 24 24 23 24 23 23 25 24 23 24 26 27 28 28 28 28 29 33 36 38 38 37 37 38 37 36 35 34 33 35 36 35 34 33 33 32
28 28 28 28 28 28 28 27 27 27 26 26 26 26 26 24 22 23 24 24 22 21 22 23 23 22 21 22 23 23 25 25 25 26 25 23 22 22 22 22 23 23 23 23 25 30 34 37 38 40 41 40 38 37 35 35 35 37 37 37 36 34 33
31 30 30 30 30 30 30 30 30 30 30 30 30 30 30 29 27 26 26 26 24 24 25 26 25 24 24 24 24 26 26 26 26 26 24 22 23 25 25 25 24 22 20 21 22 22 24 27 28 31 35 38 39 40 40 39 39 39 39 39 38 37 35
30 31 30 31 31 31 31 31 32 32 33 33 33 33 33 33 32 31 30 29 28 28 29 29 28 28 29 29 29 28 26 26 26 25 23 22 22 22 22 22 22 20 18 20 22 22 23 25 25 23 24 26 30 35 38 40 40 41 41 41 41 40 38
29 30 31 31 31 32 32 32 32 33 33 34 35 36 36 37 36 35 34 33 31 31 31 31 30 30 31 31 31 30 28 27 26 24 23 22 22 22 22 21 20 19 18 19 22 24 26 27 27 26 24 24 25 28 31 32 33 35 37 39 41 41 40
28 31 32 31 31 31 32 33 33 33 34 34 35 35 37 37 37 37 36 36 35 34 33 32 32 32 31 30 30 30 28 27 25 25 25 25 24 23 22 20 19 19 19 20 22 24 25 25 24 25 25 25 26 27 29 29 29 30 32 35 38 41 41
27 28 30 31 33 34 34 34 34 34 34 34 34 35 35 35 35 35 35 34 34 34 32 31 32 34 32 30 29 29 28 27 26 26 26 26 24 22 21 20 20 20 21 22 23 24 25 25 24 24 25 26 27 28 29 30 30 29 30 32 34 36 37
26 27 28 29 31 34 35 35 35 35 35 35 35 34 34 34 33 33 32 32 31 31 31 30 31 30 30 30 29 28 27 27 27 28 28 27 25 24 23 22 23 23 23 24 25 25 26 25 25 25 26 27 28 28 29 29 29 28 27 26 27 28 29
25 26 27 27 28 31 34 36 36 35 34 34 34 34 34 34 33 33 32 31 31 31 31 32 31 30 28 28 28 28 27 27 27 27 29 29 28 27 26 25 25 26 26 26 26 26 26 26 26 26 26 27 27 27 28 28 28 27 27 26 26 27 29
28 28 28 28 28 30 33 35 36 35 33 32 32 32 32 32 32 33 33 32 32 32 32 32 33 33 32 31 30 29 29 29 29 30 30 31 31 30 29 28 29 29 29 28 27 28 28 28 28 28 28 28 28 29 29 29 29 29 29 29 29 30 31
26 26 27 28 28 28 29 32 34 35 34 33 32 32 32 32 32 33 33 33 34 34 34 35 35 35 35 35 34 34 33 33 33 34 34 34 33 32 31 31 31 31 31 31 30 30 30 30 31 31 31 31 32 32 32 32 33 33 32 33 33 33 33
19 20 22 25 28 28 28 29 32 34 34 33 32 32 32 32 33 33 34 34 34 35 35 37 37 37 37 37 37 37 36 36 36 36 37 36 35 34 34 33 32 32 32 32 32 32 31 31 31 31 32 33 34 34 34 35 35 35 36 36 37 37 37

ECMWFFLT1_500_spd_141.txt.gz
Wind_Speed
28 25 24 26 25 23 21 19 18 17 17 18 17 17 17 17 16 16 15 14 14 14 15 16 17 19 22 24 26 27 27 27 25 24 22 20 18 17 15 14 13 13 12 11 11 10 10 9 8 7 6 5 4 3 2 0 2 1 1 1 2 3 3
27 27 25 25 25 24 23 22 20 19 19 19 18 18 18 18 18 17 16 15 15 15 14 15 17 18 20 23 25 26 26 26 25 23 22 20 19 17 16 14 13 12 12 11 11 10 9 8 6 5 4 3 2 2 1 2 2 2 2 2 1 2 2
23 27 25 25 25 24 24 23 22 20 21 20 19 19 19 19 20 19 18 16 15 15 15 15 15 17 19 21 23 24 25 25 25 24 22 20 19 17 16 15 14 13 12 11 10 9 8 7 6 5 4 3 3 4 4 3 3 1 1 1 1 2 1
20 26 27 26 26 25 25 25 24 23 22 21 21 21 20 20 20 20 19 18 16 16 16 16 16 16 17 19 21 22 24 24 24 24 22 21 19 17 16 15 14 13 12 11 10 9 8 7 6 6 6 6 6 6 5 4 2 0 1 1 2 2 2
17 22 27 28 27 26 26 26 25 25 24 23 23 22 21 20 20 21 20 19 18 17 16 15 15 16 16 17 19 21 22 23 23 24 23 22 20 19 17 16 15 14 13 12 11 10 9 9 9 8 8 8 8 8 6 4 2 0 1 2 2 2 2
17 18 23 28 29 27 25 26 27 27 26 24 24 24 23 21 20 21 22 21 19 18 16 16 15 15 16 16 17 19 21 22 23 23 23 22 21 20 19 18 17 16 15 14 13 12 12 11 11 10 10 9 8 7 5 3 2 1 1 2 2 2 2
17 18 21 27 31 29 26 26 27 28 27 26 26 25 24 22 21 22 23 22 21 20 18 18 17 17 16 16 17 17 18 20 22 22 22 22 21 21 20 19 19 18 17 16 16 15 14 13 12 11 10 8 7 5 4 3 2 3 3 2 2 2 2
16 19 21 25 31 32 28 27 28 28 27 26 26 26 24 23 23 22 23 22 22 22 21 19 19 18 17 17 17 17 17 18 19 20 20 21 21 21 20 20 20 19 19 18 16 15 14 13 12 11 9 7 5 4 3 3 3 4 4 4 4 3 3
17 18 20 24 30 34 31 29 30 29 28 27 25 25 25 24 23 23 23 23 23 23 23 22 21 19 18 17 17 17 17 16 17 17 18 19 19 19 19 19 19 18 18 16 12 12 14 12 11 11 9 7 5 4 4 5 5 5 5 6 6 5 5
18 18 20 22 28 34 34 32 31 30 29 28 27 26 26 26 25 25 24 24 23 24 24 23 22 21 19 19 18 16 16 16 16 16 16 16 17 17 17 18 17 14 14 12 10 13 16 14 12 11 10 9 7 5 5 6 6 6 6 7 6 6 6
16 17 20 23 25 31 35 33 32 31 30 30 29 28 26 26 26 26 25 25 25 25 24 24 24 23 22 20 19 18 17 16 16 16 16 16 15 15 16 15 13 11 12 12 12 14 17 16 14 14 11 9 8 8 7 7 7 7 7 7 7 7 7
14 16 24 28 26 29 34 34 33 33 32 31 30 29 27 26 26 26 26 27 27 25 24 25 25 24 24 22 21 20 19 17 17 16 16 16 15 15 15 13 12 12 12 12 12 13 14 15 16 16 14 11 9 9 9 8 8 9 9 9 9 9 9
12 14 22 30 30 30 34 36 36 35 33 33 31 29 30 31 29 28 27 27 28 28 26 25 26 25 24 23 22 21 20 19 19 18 17 17 17 16 15 13 13 14 13 13 14 15 14 15 16 17 16 14 12 10 9 10 11 12 12 12 11 11 11
11 12 15 21 25 28 33 36 37 35 34 34 33 31 31 33 31 28 27 27 28 29 28 27 26 25 24 24 23 22 22 21 21 20 20 20 20 19 17 16 16 16 16 16 17 17 17 17 17 18 17 16 14 12 11 12 13 14 14 14 13 12 12
11 11 11 14 17 20 25 29 33 35 35 35 35 34 33 32 31 29 28 28 28 28 29 28 26 25 24 24 24 23 23 23 23 23 23 22 22 21 20 20 20 19 19 19 19 18 19 19 19 19 18 17 15 15 14 14 14 15 16 16 15 14 14
10 10 10 11 12 14 16 19 25 32 36 36 35 35 36 34 32 31 30 29 28 27 28 29 28 26 25 25 25 25 25 25 24 24 24 23 23 22 22 23 22 21 21 22 21 21 21 20 21 20 20 19 18 18 17 17 16 17 18 18 17 16 16
9 10 10 10 10 11 13 15 17 21 30 37 37 35 37 35 32 31 30 29 28 28 27 29 29 28 27 26 26 25 25 26 26 25 25 25 24 23 23 24 24 23 23 23 23 23 23 23 23 22 22 22 21 21 20 19 19 19 19 20 19 18 17
9 9 10 10 11 11 11 14 17 17 21 32 39 36 34 34 32 32 32 32 32 31 30 30 30 29 29 28 26 26 26 26 27 27 26 25 25 25 26 26 26 26 26 26 25 24 24 24 23 23 23 23 24 23 23 22 22 21 22 22 21 20 19
8 7 8 10 11 12 10 11 16 18 19 26 35 36 33 33 32 32 34 36 35 33 32 32 31 30 30 29 27 27 27 26 27 28 28 27 27 27 28 28 28 28 28 28 27 26 26 26 25 24 24 25 25 26 25 25 25 25 25 25 24 23 23
9 8 8 10 10 11 11 9 11 17 20 22 26 30 31 29 28 29 33 35 35 32 31 31 30 28 30 30 28 27 28 28 28 28 28 28 29 29 29 29 29 29 29 29 29 28 28 28 28 27 27 27 27 27 27 27 27 27 26 26 26 25 25
12 11 12 13 12 10 11 11 10 13 16 17 19 24 26 26 26 27 31 34 35 33 32 32 29 27 30 31 29 28 28 28 27 27 27 28 28 28 28 29 29 29 29 30 30 30 30 30 30 30 29 29 29 29 29 28 28 28 28 27 27 26 26
15 15 15 13 11 12 13 14 13 12 13 14 15 18 21 24 25 27 30 35 36 34 33 32 30 29 31 34 33 30 28 25 24 25 27 28 28 28 28 29 31 30 29 29 30 30 30 31 31 31 31 31 30 30 30 30 30 30 30 29 28 28 27
18 18 17 13 11 13 15 13 13 14 14 14 15 16 19 21 22 23 27 34 34 31 31 33 31 31 33 36 37 35 32 27 24 24 27 29 29 30 30 30 31 31 30 30 30 31 31 32 33 32 32 31 31 31 31 31 31 31 31 31 30 29 29
22 21 19 16 14 16 15 10 10 14 17 16 17 18 20 21 21 20 23 30 31 29 28 30 31 33 34 36 38 38 36 32 28 27 28 29 30 32 32 32 32 32 32 32 30 29 30 32 34 34 33 31 31 31 31 31 32 32 33 32 31 30 30
24 23 21 20 18 18 17 12 12 16 17 16 16 16 17 20 19 17 19 24 27 27 25 25 26 27 28 32 36 38 38 36 33 32 32 32 32 33 33 34 33 33 33 33 32 29 29 32 35 35 34 33 32 32 32 32 32 33 33 33 33 32 31
25 24 23 22 20 19 18 16 16 17 17 15 14 15 15 15 15 14 15 18 20 20 20 22 22 21 21 25 29 33 35 35 35 35 35 35 35 34 35 36 37 36 36 38 37 34 33 36 37 36 35 34 34 34 34 34 34 35 35 36 36 35 35
24 25 24 23 22 20 19 18 18 18 17 16 17 17 18 18 17 16 16 16 15 16 18 20 20 19 19 20 23 26 28 29 30 31 31 32 31 31 30 31 31 32 35 39 42 41 38 36 35 33 34 35 36 36 36 36 36 36 37 38 38 37 37
25 26 26 25 24 23 21 20 19 19 18 18 18 19 20 20 20 20 21 19 17 18 21 21 19 18 19 20 22 23 24 25 24 25 26 26 25 26 25 24 23 24 25 27 30 34 34 30 27 27 28 30 32 34 35 36 37 37 38 39 39 38 37
28 29 29 28 27 26 24 23 22 22 22 21 21 21 21 22 22 22 24 24 21 22 24 23 21 21 22 22 23 24 25 24 24 25 26 24 24 26 25 21 20 21 21 19 19 22 25 25 24 25 25 26 28 29 29 29 31 34 37 39 40 39 37
31 32 32 31 30 29 28 27 26 26 25 25 25 24 24 25 26 25 26 26 25 26 26 24 23 25 26 26 26 26 26 25 25 26 26 24 26 28 25 21 20 23 24 24 22 22 24 25 26 26 26 27 27 26 25 25 27 28 30 32 35 37 37
34 34 34 34 33 31 31 30 30 30 29 29 28 28 28 28 28 29 29 28 28 28 28 27 26 27 27 27 28 28 27 26 27 27 28 28 28 29 27 25 25 26 25 24 22 20 20 22 23 23 24 27 27 26 27 29 30 29 28 26 27 29 33
36 36 35 34 35 34 33 32 32 32 32 31 31 31 31 31 31 31 32 32 32 31 31 30 30 29 28 28 29 30 30 30 30 31 32 31 30 29 28 27 26 24 24 23 21 19 19 21 22 23 25 28 30 30 30 30 30 31 31 29 27 28 30
37 37 34 32 32 33 33 33 33 33 33 33 33 33 33 34 34 34 34 34 35 34 34 34 34 33 32 31 31 32 33 33 32 31 31 30 30 29 28 27 25 24 24 23 22 22 22 22 24 25 27 29 31 31 31 30 30 31 31 31 31 31 32
35 36 33 30 29 30 31 32 33 33 34 34 34 35 35 35 35 35 35 35 35 35 35 36 36 36 36 34 33 33 33 33 31 30 30 29 29 29 28 28 26 25 24 23 23 23 23 24 25 26 28 29 30 30 31 31 32 32 32 33 33 34 35
30 33 33 31 29 29 29 30 31 32 33 34 35 35 36 36 36 36 35 35 35 35 35 35 36 36 36 36 36 34 33 33 32 31 30 30 29 28 28 27 26 24 23 23 23 23 24 25 26 27 28 29 30 31 31 32 32 33 33 33 33 34 35
25 29 31 31 30 30 29 29 30 31 33 35 36 37 38 39 39 39 38 38 37 36 35 35 35 34 34 35 35 33 31 32 32 31 30 30 28 27 27 27 26 25 25 24 25 25 25 26 27 28 29 30 31 32 32 32 32 33 33 33 32 32 33
27 29 30 30 29 29 29 30 30 31 32 34 35 36 37 39 40 40 41 40 40 39 38 36 35 34 33 34 35 34 34 34 33 30 29 29 29 28 28 27 27 27 27 27 27 27 27 28 29 30 31 32 33 34 34 35 35 35 34 34 34 33 33
29 31 33 33 31 30 30 31 32 33 34 34 35 36 37 39 40 40 41 41 41 41 40 39 37 36 35 35 35 36 38 38 37 35 35 34 34 33 31 30 29 30 31 31 31 31 31 31 31 32 32 33 34 35 36 36 37 37 37 37 37 37 36